Location: Newark
(44.3299°N, 23.7597°E)
Time: 18:50:09
(UTC+00:00)

N. Korean satellite - Visible Passes

Search period start: 16 January 2022 00:00
Search period end: 26 January 2022 00:00
Orbit: 446 x 492 km, 97.3° (Epoch: 16 January)

Date Brightness Start Highest point End Pass type
(mag) Time Alt. Az. Time Alt. Az. Time Alt. Az.
16 Jan 8.8 04:25:55 10° N 04:26:25 13° NNW 04:26:25 13° NNW visible
17 Jan 8.7 03:56:31 10° N 03:57:21 16° N 03:57:21 16° N visible
18 Jan 9.0 03:27:28 10° NNE 03:36:32 - S 03:28:16 16° NNE visible
19 Jan 9.6 02:58:52 10° NE 02:59:11 12° NE 02:59:11 12° NE visible
19 Jan 8.3 04:31:57 10° NNW 04:33:15 17° NNW 04:33:15 17° NNW visible
20 Jan 8.0 04:02:23 10° N 04:04:08 26° N 04:04:08 26° N visible
21 Jan 8.2 03:33:12 10° NNE 03:42:27 - S 03:35:02 28° NNE visible
21 Jan 8.7 05:08:56 10° NW 05:09:05 10° WNW 05:09:05 10° WNW visible
22 Jan 9.1 03:04:24 10° NE 03:05:54 19° NE 03:05:54 19° NE visible
22 Jan 8.0 04:37:47 10° NNW 04:39:58 20° NW 04:39:58 20° NW visible
23 Jan 10.0 02:36:29 10° ENE 02:36:46 11° ENE 02:36:46 11° ENE visible
23 Jan 7.1 04:08:03 10° N 04:10:50 39° NW 04:10:50 39° NW visible
24 Jan 7.0 03:38:43 10° NNE 03:41:41 56° NNE 03:41:41 56° NNE visible
24 Jan 9.7 15:48:16 10° SW 15:50:28 16° W 15:52:42 10° NW visible
25 Jan 8.4 03:09:46 10° NNE 03:12:32 30° ENE 03:12:32 30° ENE visible
25 Jan 8.0 04:43:26 10° NNW 04:45:58 18° WNW 04:46:36 17° W visible
